Time,TemperatureF,DewpointF,PressureIn,WindDirection,WindDirectionDegrees,WindSpeedMPH,WindSpeedGustMPH,Humidity,HourlyPrecipIn,Conditions,Clouds,dailyrainin,SoftwareType,DateUTC
2013-03-03 00:00:00,30.7,28.7,30.26,NW,319,0.0,2.0,92,0.00,,,0.00,Wunderground v.1.15,2013-03-03 06:00:00,
2013-03-03 00:05:00,30.6,28.6,30.26,NW,319,0.0,2.0,92,0.00,,,0.00,Wunderground v.1.15,2013-03-03 06:05:00,
2013-03-03 00:10:00,30.5,28.5,30.26,NW,319,0.0,2.0,92,0.00,,,0.00,Wunderground v.1.15,2013-03-03 06:10:00,
2013-03-03 00:15:00,30.4,28.4,30.26,NW,319,0.0,2.0,92,0.00,,,0.00,Wunderground v.1.15,2013-03-03 06:15:00,
2013-03-03 00:20:00,30.3,28.3,30.26,NW,319,0.0,2.0,92,0.00,,,0.00,Wunderground v.1.15,2013-03-03 06:20:00,
2013-03-03 00:25:00,30.1,28.3,30.26,NW,319,0.0,2.0,93,0.00,,,0.00,Wunderground v.1.15,2013-03-03 06:25:00,
2013-03-03 00:30:00,30.1,28.3,30.26,NW,319,0.0,2.0,93,0.00,,,0.00,Wunderground v.1.15,2013-03-03 06:30:00,
2013-03-03 00:35:00,30.0,28.2,30.26,NW,319,0.0,2.0,93,0.00,,,0.00,Wunderground v.1.15,2013-03-03 06:35:00,
2013-03-03 00:40:00,29.8,28.0,30.26,NW,319,0.0,2.0,93,0.00,,,0.00,Wunderground v.1.15,2013-03-03 06:40:00,
2013-03-03 00:45:00,29.8,28.0,30.26,NW,319,0.0,2.0,93,0.00,,,0.00,Wunderground v.1.15,2013-03-03 06:45:00,
2013-03-03 09:09:00,42.0,29.9,30.30,NNE,32,1.0,1.0,62,0.00,,,0.00,Wunderground v.1.15,2013-03-03 15:09:00,
2013-03-03 09:10:00,42.2,30.1,30.30,NNE,33,1.0,2.0,62,0.00,,,0.00,Wunderground v.1.15,2013-03-03 15:10:00,
2013-03-03 09:15:00,42.3,29.4,30.30,North,6,1.0,2.0,60,0.00,,,0.00,Wunderground v.1.15,2013-03-03 15:15:00,
2013-03-03 09:20:00,42.6,29.3,30.30,NE,56,1.0,2.0,59,0.00,,,0.00,Wunderground v.1.15,2013-03-03 15:20:00,
2013-03-03 09:25:00,43.1,29.7,30.30,SE,135,1.0,3.0,59,0.00,,,0.00,Wunderground v.1.15,2013-03-03 15:25:00,
2013-03-03 09:30:00,42.8,29.9,30.30,NNW,332,2.0,2.0,60,0.00,,,0.00,Wunderground v.1.15,2013-03-03 15:30:00,
2013-03-03 09:35:00,42.3,29.4,30.30,NNW,338,2.0,2.0,60,0.00,,,0.00,Wunderground v.1.15,2013-03-03 15:35:00,
2013-03-03 09:40:00,42.5,30.0,30.30,NNE,30,2.0,2.0,61,0.00,,,0.00,Wunderground v.1.15,2013-03-03 15:40:00,
2013-03-03 09:45:00,42.7,29.8,30.30,NW,316,2.0,3.0,60,0.00,,,0.00,Wunderground v.1.15,2013-03-03 15:45:00,
2013-03-03 09:50:00,42.4,28.7,30.30,WNW,285,2.0,2.0,58,0.00,,,0.00,Wunderground v.1.15,2013-03-03 15:50:00,
2013-03-03 09:55:00,42.3,29.4,30.30,West,271,1.0,2.0,60,0.00,,,0.00,Wunderground v.1.15,2013-03-03 15:55:00,
2013-03-03 10:00:00,43.0,30.1,30.29,West,259,1.0,2.0,60,0.00,,,0.00,Wunderground v.1.15,2013-03-03 16:00:00,
2013-03-03 10:05:00,42.7,28.9,30.29,West,278,2.0,3.0,58,0.00,,,0.00,Wunderground v.1.15,2013-03-03 16:05:00,
2013-03-03 10:10:00,43.1,30.6,30.29,NNE,13,3.0,3.0,61,0.00,,,0.00,Wunderground v.1.15,2013-03-03 16:10:00,
2013-03-03 10:15:00,43.6,29.4,30.29,East,86,2.0,3.0,57,0.00,,,0.00,Wunderground v.1.15,2013-03-03 16:15:00,
2013-03-03 10:20:00,43.7,29.9,30.29,NE,39,2.0,2.0,58,0.00,,,0.00,Wunderground v.1.15,2013-03-03 16:20:00,
2013-03-03 10:24:00,44.1,29.4,30.28,NW,304,2.0,4.0,56,0.00,,,0.00,Wunderground v.1.15,2013-03-03 16:24:00,
2013-03-03 10:30:00,44.3,30.9,30.28,WSW,257,3.0,3.0,59,0.00,,,0.00,Wunderground v.1.15,2013-03-03 16:30:00,
2013-03-03 10:35:00,44.4,29.7,30.28,WNW,302,3.0,3.0,56,0.00,,,0.00,Wunderground v.1.15,2013-03-03 16:35:00,
2013-03-03 10:40:00,44.4,29.2,30.28,ESE,106,2.0,2.0,55,0.00,,,0.00,Wunderground v.1.15,2013-03-03 16:40:00,
2013-03-03 10:45:00,44.9,30.6,30.28,SW,225,2.0,2.0,57,0.00,,,0.00,Wunderground v.1.15,2013-03-03 16:45:00,
2013-03-03 10:50:00,45.6,29.9,30.27,South,172,1.0,1.0,54,0.00,,,0.00,Wunderground v.1.15,2013-03-03 16:50:00,
2013-03-03 10:55:00,46.2,29.5,30.27,WNW,300,1.0,3.0,52,0.00,,,0.00,Wunderground v.1.15,2013-03-03 16:55:00,
2013-03-03 11:05:00,46.8,30.1,30.26,WSW,249,2.0,2.0,52,0.00,,,0.00,Wunderground v.1.15,2013-03-03 17:05:00,
2013-03-03 17:25:00,57.7,32.9,30.15,SW,236,1.0,1.0,39,0.00,,,0.00,Wunderground v.1.15,2013-03-03 23:25:00,
2013-03-03 17:30:00,57.6,33.4,30.15,SW,236,0.0,2.0,40,0.00,,,0.00,Wunderground v.1.15,2013-03-03 23:30:00,